Volver al catálogo

BEIJING-3C 03

ActivoCienciaSSO
NORAD 59807·PAYLOAD·🇨🇳 China
Este nombre de satélite aún no ha sido confirmado por fuentes oficiales.

Lanzado May 20, 2024 desde Taiyuan Satellite Launch Center

Loading…

Próximos Pases (próximas 24 horas)

TLE

ActualizadoSource: Space-Track

Época: Sep 14, 2026, 22:35 UTC

1 59807U 24094C   26257.94116176  .00005627  00000-0  28880-3 0  9994
2 59807  97.3841 326.8515 0002171  61.6485 298.4968 15.16909585128763

Sigue BEIJING-3C 03 en tiempo real con AllMySat

Download on the App Store